COSMOS 2491 DEB, 45130

Orbit data source: Space-Track

COSMOS 2491 DEB, 45130 is space debris in LEO originally from a launch on Wed, 25 Dec 2013 UTC launched from the Plesetsk Missile And Space Complex (PKMTR). Debris objects in space refer to the collection of defunct objects orbiting the Earth. Examples of debris include non-operational satellites, rocket bodies, and fragments generated from explosions, collisions, or faulty payload assembly.

Loading next visibility...
COSMOS 2491 DEB details
Identifier
45130, 2013-076AC
Orbit
LEO
Last TLE update4 days ago
Origin
Flag of CISTsNIIKhM (CIS)
ManufacturerTsNIIKhM
MissionSpacecraft
Bus & MotorUnknown
MassUnknown
Launch date (UTC)
2013-12-25 (11 years ago)
Launch vehicleUnknown
Launch site
Plesetsk Missile And Space Complex (PKMTR)
Object type
Payload
Rocket body
Debris
Shape & HBRUnknown
Radar Cross SectionSmall (<0.1 m²)

Expand to show TLE details & history

TLE from 4 days ago
0 COSMOS 2491 DEB
1 45130U 13076AC  24357.59167641  .00006128  00000-0  29971-1 0  9996
2 45130  82.4426  99.3097 0160398 269.8398  88.4317 12.68323954225924
Epoch: 2024-12-22T14:12Z
Definitive object data (Epoch: 2024-12-22T14:12:00.841Z)
Latitude0.00002°
Longitude154.67992°
Altitude1,390.098 km
Speed7.165 km/s
True Right ascension06h 37m 14s
True Declination0° 00' 00"
Sunlit
Object was in full shadow at TLE epoch
Visualization TLE readout
Latitude-77.42076°
Longitude115.88305°
Altitude1,298.398 km
Speed7.262 km/s
Apparent Right ascension23h 10m 39s
Apparent Declination-66° 03' 39"
Sunlit
Object is in daylight
Visualization observer readout
Local Sidereal Time09:54:19
Azimuth196.258° SSW
Elevation-61.712°
Doppler factor1
Orbital elements
Apogee altitude1,510.628 km
Perigee altitude1,261.555 km
Semi-major axis7,764.228 km
Eccentricity0.0160398
Inclination82.4426°
RAAN99.3097°
Arg. of periapsis269.8398°
True anomaly90.26973°
Mean anomaly88.4317°
Eccentric anomaly89.35065°
Mean motion3.17246 °/min
BSTAR0.029971
Orbital period113.48 mins
Loading maneuver chart data...
Loading historical data...
Loading historical data...
Loading historical data...
Loading historical data...
Loading historical data...
Loading historical data...
Loading historical data...

COSMOS 2491 DEB Visibility forecast

Observer location: undefined°, undefined

Span
Click to sort rows by Start time (UTC) header in descending order
Start Az.
Max El. time (UTC)
Max El. Az.
Max El.
End time (UTC)
End Az.
14 mins2024-12-26 17:15:07.066Z8.764° NNE2024-12-26 17:23:07.066Z75.179° E28.456°2024-12-26 17:29:07.066Z127.46° SE
14 mins2024-12-26 19:11:07.066Z338.96° N2024-12-26 19:17:07.066Z279.937° WNW38.624°2024-12-26 19:25:07.066Z197.569° SSW
12 mins2024-12-27 06:01:07.066Z133.013° SE2024-12-27 06:07:07.066Z79.03° E26.841°2024-12-27 06:13:07.066Z30.714° NE
15 mins2024-12-27 07:54:07.066Z208.621° SW2024-12-27 08:01:07.066Z293.97° NW40.069°2024-12-27 08:09:07.066Z0.249° NNE
|